Location: Bergfeld
(52.0500°N, 11.7833°E)
Time: 02:27:23
(UTC+00:00)

NOSS 3-1 (A) - Pass Details

Date: 17 February 2020
Orbit: 761 x 1452 km, 63.4° (Epoch: 26 March)

Event Time Altitude Azimuth Distance (km) Brightness Sun altitude
Exits shadow 03:39:14 47° 285° (WNW) 1,595 4.2 -26.0°
Maximum altitude 03:41:16 61° 233° (SW) 1,433 4.0 -25.7°
Drops below altitude 10° 03:49:37 10° 157° (SSE) 3,473 6.5 -24.5°
Sets 03:52:42 0° 154° (SSE) 4,493 7.1 -24.0°
